Weather reports worldwide

Advertisment
Madrid/Barajas, Spain (8221): temperature & dewpoint: 29.06.2020 16:00:00 - 05.07.2020 16:00:00 (CEST)Madrid/Barajas, Spain (8221): wind speed: 29.06.2020 16:00:00 - 05.07.2020 16:00:00 (CEST)Madrid/Barajas, Spain (8221): wind direction: 29.06.2020 16:00:00 - 05.07.2020 16:00:00 (CEST)Madrid/Barajas, Spain (8221): reduced air pressure: 29.06.2020 16:00:00 - 05.07.2020 16:00:00 (CEST)Madrid/Barajas, Spain (8221): visibility: 29.06.2020 16:00:00 - 05.07.2020 16:00:00 (CEST)
Date & Time tt [°C] td [°C] ff [km/h] ff [kn] dd ppp [hPa] vv [km]
05.07.2020 16:00:00 - - - - - - -
05.07.2020 15:00:00 35,2 5,6 11 6 SW 1014,7 10
05.07.2020 14:00:00 34,4 8,3 9 5 SE 1015,6 30
05.07.2020 13:00:00 32,5 11,0 5 3 NNE 1016,7 30
05.07.2020 12:00:00 30,6 10,5 4 2 NW 1017,7 30
05.07.2020 11:00:00 27,9 8,1 5 3 NNW 1018,8 30
05.07.2020 10:00:00 25,4 6,9 4 2 - 1019,8 10
05.07.2020 09:00:00 22,2 5,6 4 2 NNE 1020,5 30
05.07.2020 08:00:00 18,9 4,3 5 3 N 1021,2 30
05.07.2020 07:00:00 18,1 3,9 8 4 N 1021,3 30
05.07.2020 06:00:00 19,2 4,0 9 5 N 1020,9 30
05.07.2020 05:00:00 19,9 4,1 5 3 NNW 1020,7 10
05.07.2020 04:00:00 21,5 4,1 9 5 N 1020,4 10
05.07.2020 03:00:00 23,1 4,1 13 7 N 1019,9 10
05.07.2020 02:00:00 23,5 2,6 8 4 NNW 1020,0 10
05.07.2020 01:00:00 24,0 -1,1 5 3 NW 1019,6 10
05.07.2020 00:00:00 26,2 -1,0 9 5 NNW 1018,6 30
04.07.2020 23:00:00 28,4 -0,7 8 4 N 1017,3 10
04.07.2020 22:00:00 29,2 2,4 4 2 SSE 1016,2 30
04.07.2020 21:00:00 33,4 3,2 5 3 SSE 1014,8 10
04.07.2020 20:00:00 34,7 3,3 8 4 SSE 1014,4 30
04.07.2020 19:00:00 35,2 3,5 5 3 W 1014,5 10
04.07.2020 18:00:00 35,0 3,5 8 4 W 1015,1 10
04.07.2020 17:00:00 34,9 3,4 9 5 SSW 1015,5 10
04.07.2020 16:00:00 33,6 3,4 8 4 W 1016,3 10
04.07.2020 15:00:00 32,6 3,5 8 4 NW 1017,0 30
04.07.2020 14:00:00 31,6 4,6 8 4 WNW 1018,0 10
04.07.2020 13:00:00 30,2 4,0 5 3 NNE 1018,9 10
04.07.2020 12:00:00 29,3 5,6 8 4 NE 1019,3 30
04.07.2020 11:00:00 27,1 7,0 5 3 N 1019,7 10
04.07.2020 10:00:00 23,7 6,9 8 4 NNW 1020,7 10
04.07.2020 09:00:00 19,8 5,4 13 7 N 1021,5 30
04.07.2020 08:00:00 17,4 4,3 11 6 N 1021,7 10
04.07.2020 07:00:00 16,5 4,2 5 3 NNE 1021,7 30
04.07.2020 06:00:00 17,5 3,5 5 3 ENE 1021,2 30
04.07.2020 05:00:00 18,1 2,5 0 0 N 1020,6 30
04.07.2020 04:00:00 19,5 2,8 4 2 - 1020,1 10
04.07.2020 03:00:00 21,0 3,7 8 4 ENE 1019,8 10
04.07.2020 02:00:00 22,2 3,8 9 5 ENE 1019,0 30
04.07.2020 01:00:00 23,3 4,6 4 2 N 1018,2 30
04.07.2020 00:00:00 24,9 4,1 5 3 NNE 1017,5 10
03.07.2020 23:00:00 26,5 4,9 11 6 N 1016,3 10
03.07.2020 22:00:00 28,6 4,1 13 7 N 1015,1 10
03.07.2020 21:00:00 31,7 5,2 5 3 ESE 1013,8 30
03.07.2020 20:00:00 32,4 5,0 9 5 S 1013,4 10
03.07.2020 19:00:00 32,8 5,4 9 5 SW 1013,2 30
03.07.2020 18:00:00 32,3 5,7 8 4 NW 1013,7 10
03.07.2020 17:00:00 31,8 5,3 9 5 NNE 1014,2 30
03.07.2020 16:00:00 31,7 5,4 4 2 SE 1014,8 15
03.07.2020 15:00:00 30,6 6,1 13 7 W 1015,3 10
03.07.2020 14:00:00 28,7 7,3 9 5 WNW 1016,2 30
03.07.2020 13:00:00 27,6 8,8 8 4 N 1016,6 10
03.07.2020 12:00:00 26,0 9,3 9 5 NNE 1017,3 10
03.07.2020 11:00:00 23,6 10,5 13 7 NE 1017,8 30
03.07.2020 10:00:00 21,5 10,3 15 8 NNE 1018,5 10
03.07.2020 09:00:00 19,7 10,1 13 7 NNE 1019,0 10
03.07.2020 08:00:00 16,8 9,2 11 6 N 1019,2 10
03.07.2020 07:00:00 16,3 9,0 9 5 N 1018,9 10
03.07.2020 06:00:00 16,5 9,4 8 4 N 1018,4 30
03.07.2020 05:00:00 17,4 10,0 5 3 N 1017,7 10
03.07.2020 04:00:00 18,2 10,8 9 5 N 1017,3 10
03.07.2020 03:00:00 19,4 11,2 8 4 NE 1016,7 10
03.07.2020 02:00:00 21,6 11,7 9 5 ENE 1015,7 30
03.07.2020 01:00:00 23,0 5,0 4 2 - 1015,0 10
03.07.2020 00:00:00 24,9 6,1 9 5 NNW 1014,0 30
02.07.2020 23:00:00 27,0 6,4 16 9 WNW 1012,6 30
02.07.2020 22:00:00 28,3 8,0 21 11 WNW 1011,5 30
02.07.2020 21:00:00 29,6 9,2 18 10 WNW 1010,6 10
02.07.2020 20:00:00 32,0 7,6 18 10 W 1009,5 10
02.07.2020 19:00:00 32,1 5,6 21 11 WSW 1009,3 30
02.07.2020 18:00:00 33,5 5,9 18 10 SW 1009,1 30
02.07.2020 17:00:00 33,8 6,2 21 11 SW 1009,2 30
02.07.2020 16:00:00 33,1 3,9 24 13 SSW 1010,3 10
02.07.2020 15:00:00 32,6 5,2 28 15 WSW 1010,6 30
02.07.2020 14:00:00 32,3 4,3 24 13 WSW 1011,1 10
02.07.2020 13:00:00 31,5 7,4 28 15 SW 1011,3 10
02.07.2020 12:00:00 30,1 9,8 16 9 SW 1011,6 10
02.07.2020 11:00:00 29,0 10,2 11 6 WSW 1012,0 30
02.07.2020 10:00:00 26,3 9,5 4 2 N 1012,6 30
02.07.2020 09:00:00 23,4 9,0 2 1 - 1013,1 10
02.07.2020 08:00:00 19,1 7,8 8 4 N 1013,7 30
02.07.2020 07:00:00 17,8 7,5 5 3 NE 1013,7 10
02.07.2020 06:00:00 19,0 6,5 0 0 N 1013,1 30
02.07.2020 05:00:00 19,8 6,5 0 0 N 1012,7 30
02.07.2020 04:00:00 21,2 6,7 5 3 N 1012,6 10
02.07.2020 03:00:00 21,7 6,8 5 3 N 1012,6 10
02.07.2020 02:00:00 23,4 6,6 0 0 N 1011,9 30
02.07.2020 01:00:00 26,0 7,1 5 3 N 1011,3 10
02.07.2020 00:00:00 29,2 7,7 15 8 WNW 1010,0 10
01.07.2020 23:00:00 30,5 7,9 21 11 WSW 1009,5 30
01.07.2020 22:00:00 31,9 5,4 16 9 WNW 1008,5 10
01.07.2020 21:00:00 32,9 6,2 15 8 WNW 1007,6 10
01.07.2020 20:00:00 34,3 8,3 16 9 SW 1007,0 10
01.07.2020 19:00:00 34,6 9,1 18 10 W 1006,9 10
01.07.2020 18:00:00 36,0 9,5 22 12 WSW 1006,9 10
01.07.2020 17:00:00 36,0 8,7 21 11 WSW 1007,1 30
01.07.2020 16:00:00 35,4 7,5 22 12 SW 1007,6 10
01.07.2020 15:00:00 34,6 7,6 22 12 SW 1008,1 30
01.07.2020 14:00:00 33,6 8,9 21 11 SW 1008,5 10
01.07.2020 13:00:00 32,7 6,1 21 11 SW 1009,2 10
01.07.2020 12:00:00 32,0 3,7 28 15 WSW 1009,4 30
01.07.2020 11:00:00 30,8 9,1 22 12 WSW 1009,5 30
01.07.2020 10:00:00 28,0 10,7 13 7 WSW 1010,4 26
01.07.2020 09:00:00 24,5 12,0 4 2 NNE 1010,7 30
01.07.2020 08:00:00 20,0 11,5 4 2 - 1011,4 10
01.07.2020 07:00:00 20,5 12,9 5 3 E 1010,8 10
01.07.2020 06:00:00 21,5 13,1 5 3 E 1010,1 10
01.07.2020 05:00:00 22,3 13,1 4 2 SE 1009,8 30
01.07.2020 04:00:00 23,8 12,7 4 2 SE 1009,5 30
01.07.2020 03:00:00 25,4 12,9 4 2 ENE 1009,0 10
01.07.2020 02:00:00 26,4 11,2 9 5 E 1008,6 10
01.07.2020 01:00:00 29,6 9,7 8 4 W 1007,5 30
01.07.2020 00:00:00 31,2 9,4 13 7 W 1006,9 10
30.06.2020 23:00:00 32,3 10,3 18 10 W 1006,5 10
30.06.2020 22:00:00 33,5 9,5 21 11 W 1005,5 10
30.06.2020 21:00:00 35,6 7,2 15 8 WSW 1004,3 30
30.06.2020 20:00:00 36,9 6,9 18 10 W 1003,8 10
30.06.2020 19:00:00 37,8 6,7 15 8 W 1003,7 10
30.06.2020 18:00:00 38,0 6,9 22 12 SW 1004,4 30
30.06.2020 17:00:00 37,9 5,8 21 11 SSW 1005,0 10
30.06.2020 16:00:00 37,8 6,4 22 12 SW 1005,7 10
30.06.2020 15:00:00 36,8 7,0 15 8 WSW 1006,8 30
30.06.2020 14:00:00 35,7 9,6 13 7 SSE 1007,7 30
30.06.2020 13:00:00 33,7 11,8 5 3 SSE 1008,5 10
30.06.2020 12:00:00 31,9 12,2 5 3 ENE 1009,2 30
30.06.2020 11:00:00 29,9 12,8 4 2 NNE 1010,2 30
30.06.2020 10:00:00 27,2 13,2 5 3 N 1011,2 10
30.06.2020 09:00:00 24,8 14,6 8 4 NE 1012,1 30
30.06.2020 08:00:00 21,5 14,4 4 2 - 1012,7 10
30.06.2020 07:00:00 20,9 14,0 0 0 N 1012,6 30
30.06.2020 06:00:00 21,3 14,0 4 2 ENE 1012,1 30
30.06.2020 05:00:00 22,4 13,7 8 4 N 1011,5 10
30.06.2020 04:00:00 23,5 14,5 5 3 N 1011,1 10
30.06.2020 03:00:00 24,7 14,5 9 5 NNE 1011,2 30
30.06.2020 02:00:00 26,0 13,5 4 2 - 1011,2 10
30.06.2020 01:00:00 26,9 7,9 5 3 N 1010,8 10
30.06.2020 00:00:00 29,3 4,7 5 3 NNW 1010,2 10
29.06.2020 23:00:00 31,3 2,6 9 5 W 1009,4 10
29.06.2020 22:00:00 32,7 1,7 9 5 WSW 1008,6 30
29.06.2020 21:00:00 35,5 0,5 13 7 WSW 1007,9 10
29.06.2020 20:00:00 36,7 0,1 11 6 SW 1007,7 30
29.06.2020 19:00:00 37,2 2,4 11 6 SSW 1007,9 10
29.06.2020 18:00:00 37,3 4,3 21 11 W 1008,3 10
29.06.2020 17:00:00 37,2 6,2 18 10 W 1009,0 10
29.06.2020 16:00:00 36,4 7,4 11 6 SW 1009,7 10

tt = temperature
td = dewpoint
ff = wind speed
dd = wind direction
ppp = reduced air pressure
vv = visibility

Next stations